Weather History for Altus AFB, OK

Change the Weather History Date:

Sunday, November 10, 2013

  Actual Average Record
Temperature  
Mean Temperature 57 °F -  
Max Temperature 66 °F 61 °F 82 °F (2012)
Min Temperature 48 °F 40 °F 32 °F (1997)
Degree Days  
Heating Degree Days 8    
Growing Degree Days 7 (Base 50)    
Moisture  
Dew Point 52 °F    
Average Humidity 88    
Maximum Humidity 100    
Minimum Humidity 64    
Precipitation  
Precipitation 0.00 in - - ()
Sea Level Pressure  
Sea Level Pressure 30.27 in    
Wind  
Wind Speed 8 mph (ESE)    
Max Wind Speed 13 mph    
Max Gust Speed -    
Visibility 10 miles    
Events      
Averages and records for this station are not official NWS values.
T = Trace of Precipitation, MM = Missing Value Source: NWS Daily Summary

Daily Weather History Graph

Daily Weather History Graph

Search for Another Location

Airport:

Trip Planner

Search our weather history database for the weather conditions in past years. The results will help you decide how hot, cold, wet, or windy it might be!

Date:

Astronomy

Nov. 10, 2013 Rise Set
Actual Time 7:06 AM CST 5:35 PM CST
Civil Twilight 6:39 AM CST 6:01 PM CST
Nautical Twilight 6:09 AM CST 6:32 PM CST
Astronomical Twilight 5:39 AM CST 7:01 PM CST
Moon 1:26 PM CST (11/10) 12:04 AM CST (11/10)
Length of Visible Light 11h 22m
Length of Day
10h 28m
First Quarter, 56% of the Moon is Illuminated
Nov 10
First Quarter
Nov 17
Full
Nov 25
Last Quarter
Dec 2
New
Dec 9
First Quarter

Hourly Weather History & Observations

Time (CST) Temp. Dew Point Humidity Pressure Visibility Wind Dir Wind Speed Gust Speed Precip Events Conditions
12:58 AM 52.0 °F 51.8 °F 99% 30.20 in 10.0 mi East 8.1 mph - N/A   Clear
1:58 AM 51.4 °F 51.3 °F 99% 30.21 in 10.0 mi East 8.1 mph - N/A   Clear
2:58 AM 50.5 °F 50.4 °F 99% 30.21 in 10.0 mi East 8.1 mph - N/A   Clear
3:58 AM 49.5 °F 49.3 °F 99% 30.22 in 10.0 mi East 10.4 mph - N/A   Clear
4:58 AM 49.1 °F 48.9 °F 99% 30.24 in 10.0 mi ENE 5.8 mph - N/A   Partly Cloudy
5:08 AM 48.2 °F 48.2 °F 100% 30.25 in 10.0 mi ENE 6.9 mph - N/A   Mostly Cloudy
5:58 AM 49.5 °F 49.1 °F 99% 30.27 in 10.0 mi East 8.1 mph - N/A   Overcast
6:58 AM 50.5 °F 50.2 °F 99% 30.29 in 10.0 mi ENE 9.2 mph - N/A   Overcast
7:48 AM 51.8 °F 50.0 °F 94% 30.30 in 10.0 mi East 9.2 mph - N/A   Overcast
7:58 AM 52.3 °F 50.9 °F 95% 30.30 in 10.0 mi East 10.4 mph - N/A   Overcast
8:58 AM 53.4 °F 50.7 °F 91% 30.33 in 10.0 mi ESE 12.7 mph - N/A   Overcast
9:00 AM 53.6 °F 50.0 °F 88% 30.33 in 10.0 mi ESE 10.4 mph - N/A   Overcast
9:15 AM 53.6 °F 50.0 °F 88% 30.33 in 10.0 mi ESE 11.5 mph - N/A   Overcast
9:58 AM 53.8 °F 51.3 °F 91% 30.34 in 10.0 mi SE 10.4 mph - N/A   Overcast
10:08 AM 53.6 °F 51.8 °F 94% 30.34 in 10.0 mi ESE 10.4 mph - N/A   Overcast
10:28 AM 55.4 °F 51.8 °F 88% 30.34 in 10.0 mi SE 9.2 mph - N/A   Overcast
10:58 AM 55.4 °F 51.8 °F 88% 30.33 in 10.0 mi East 10.4 mph - N/A   Overcast
11:58 AM 56.8 °F 52.3 °F 85% 30.31 in 10.0 mi SE 8.1 mph - N/A   Overcast
12:18 PM 57.2 °F 51.8 °F 82% 30.30 in 10.0 mi ESE 6.9 mph - N/A   Overcast
12:58 PM 59.7 °F 52.9 °F 78% 30.27 in 10.0 mi ESE 9.2 mph - N/A   Overcast
1:03 PM 60.8 °F 53.6 °F 77% 30.28 in 10.0 mi SE 10.4 mph - N/A   Overcast
1:48 PM 62.6 °F 53.6 °F 72% 30.26 in 10.0 mi SE 10.4 mph - N/A   Overcast
1:58 PM 64.0 °F 53.6 °F 69% 30.25 in 10.0 mi SE 9.2 mph - N/A   Overcast
2:38 PM 64.4 °F 53.6 °F 68% 30.25 in 10.0 mi SE 10.4 mph - N/A   Mostly Cloudy
2:58 PM 65.7 °F 54.1 °F 66% 30.23 in 10.0 mi SSE 8.1 mph - N/A   Mostly Cloudy
3:13 PM 66.2 °F 53.6 °F 64% 30.24 in 10.0 mi SSE 8.1 mph - N/A   Scattered Clouds
3:58 PM 65.5 °F 54.3 °F 67% 30.22 in 10.0 mi SE 12.7 mph - N/A   Clear
4:58 PM 62.6 °F 54.3 °F 74% 30.23 in 10.0 mi SSE 10.4 mph - N/A   Clear
5:58 PM 56.8 °F 52.9 °F 87% 30.24 in 10.0 mi South 5.8 mph - N/A   Partly Cloudy
6:38 PM 55.4 °F 51.8 °F 88% 30.25 in 10.0 mi South 2.3 mph - N/A   Mostly Cloudy
6:58 PM 56.1 °F 53.1 °F 89% 30.25 in 10.0 mi South 2.3 mph - N/A   Overcast
7:58 PM 55.0 °F 52.7 °F 92% 30.25 in 10.0 mi NE 1.2 mph - N/A   Overcast
8:38 PM 53.6 °F 53.6 °F 100% 30.26 in 10.0 mi Variable 2.3 mph - N/A   Overcast
8:58 PM 54.1 °F 53.8 °F 99% 30.26 in 10.0 mi NE 2.3 mph - N/A   Overcast
9:48 PM 55.4 °F 53.6 °F 94% 30.25 in 10.0 mi Calm Calm - N/A   Overcast
9:58 PM 54.5 °F 54.1 °F 99% 30.25 in 10.0 mi ESE 2.3 mph - N/A   Overcast
10:58 PM 55.4 °F 54.7 °F 97% 30.25 in 10.0 mi ESE 3.5 mph - N/A   Overcast
11:58 PM 53.4 °F 53.1 °F 99% 30.24 in 10.0 mi ESE 5.8 mph - N/A   Mostly Cloudy